Regional Weather Roundup
Issued by NWS

Home | Current Version | Previous Version | Text Only | Print | Product List | Glossary Off
Versions: 1 2 3 4 5 6 7 8 9 10 11 12 13 14 15 16 17 18 19 20 21 22 23 24 25 26 27 28 29 30 31 32 33 34 35 36 37 38 39 40 41 42 43 44 45 46 47 48 49 50

000
ASUS43 KTOP 281159
RWRKS

WEATHER ROUNDUP FOR KANSAS
NATIONAL WEATHER SERVICE GOODLAND KS
600 AM CST TUE FEB 28 2017

NOTE:  "FAIR" INDICATES FEW OR NO CLOUDS BELOW 12,000 FEET WITH NO
SIGNIFICANT WEATHER AND/OR OBSTRUCTIONS TO VISIBILITY.

KSZ001>006-013>018-027>032-041>047-281300-
NORTHWEST KANSAS

CITY           SKY/WX    TMP DP  RH WIND       PRES   REMARKS
GOODLAND       CLEAR     25  21  85 NW17      29.68F WCI  12
6HR MIN TEMP:  24; 6HR MAX TEMP:  40;

HAYS             N/A     37  23  56 W3        29.68R
HILL CITY      CLOUDY    35  27  72 NW12      29.66R WCI  27
6HR MIN TEMP:  35; 6HR MAX TEMP:  52;

RUSSELL        CLOUDY    38  21  50 W5        29.65R
6HR MIN TEMP:  36; 6HR MAX TEMP:  54;

$$

KSZ061>065-074>080-084>089-281300-
SOUTHWEST KANSAS

CITY           SKY/WX    TMP DP  RH WIND       PRES   REMARKS
DODGE CITY     CLOUDY    37  16  42 NW9       29.68R
6HR MIN TEMP:  37; 6HR MAX TEMP:  48;

ELKHART          N/A     45  23  42 SW10        N/A
GARDEN CITY    CLEAR     33  19  56 N8        29.69R
6HR MIN TEMP:  33; 6HR MAX TEMP:  44;

LIBERAL        CLOUDY    43  14  31 SW13      29.68S
$$

KSZ066>073-081>083-090>101-281300-
SOUTHEAST KANSAS

CITY           SKY/WX    TMP DP  RH WIND       PRES   REMARKS
CHANUTE        CLOUDY    62  58  86 S21G29    29.73R
6HR MIN TEMP:  62; 6HR MAX TEMP:  64;

COFFEYVILLE    CLOUDY    62  59  90 S18       29.75S
6HR MIN TEMP:  61; 6HR MAX TEMP:  63;

HUTCHINSON     CLOUDY    46  43  89 S3        29.66S
6HR MIN TEMP:  46; 6HR MAX TEMP:  57;

MEDICINE LODGE   N/A     45  36  70 S6        29.68S
NEWTON         CLOUDY    57  55  93 S21       29.66F FOG
PARSONS        CLOUDY    63  59  87 S13G24    29.75S
6HR MIN TEMP:  61; 6HR MAX TEMP:  64;

WICHITA INTL   FOG       55  55 100 S10       29.67F VSB 1/4
6HR MIN TEMP:  55; 6HR MAX TEMP:  59;

WICHITA JABRA  CLOUDY    58  58 100 S15       29.67F FOG
6HR MIN TEMP:  58; 6HR MAX TEMP:  60;

WICHITA MCCONL CLOUDY    57  55  94 SW12      29.68F FOG
WINFIELD       CLOUDY    60  58  92 S13       29.72R
6HR MIN TEMP:  60; 6HR MAX TEMP:  62;

$$

KSZ007>012-019>026-033>040-048>060-102>105-281300-
NORTHEAST KANSAS

CITY           SKY/WX    TMP DP  RH WIND       PRES   REMARKS
CONCORDIA      CLOUDY    45  32  60 SW8       29.63R
6HR MIN TEMP:  42; 6HR MAX TEMP:  50;

EMPORIA        MOCLDY    61  58  90 S18G24    29.67F
6HR MIN TEMP:  61; 6HR MAX TEMP:  63;

LAWRENCE         N/A     63  59  87 MISG      29.66F
6HR MIN TEMP:  60; 6HR MAX TEMP:  65;

MANHATTAN      CLOUDY    56  53  90 SW10      29.64S
6HR MIN TEMP:  56; 6HR MAX TEMP:  60;

OLATHE IND     CLOUDY    62  58  86 S15       29.70F
6HR MIN TEMP:  60; 6HR MAX TEMP:  63;

OLATHE EXE     CLOUDY    61  59  93 S13G23    29.70S
6HR MIN TEMP:  59; 6HR MAX TEMP:  61;

SALINA         PTCLDY    49  46  90 S10       29.66R FOG
6HR MIN TEMP:  48; 6HR MAX TEMP:  58;

TOPEKA BILLARD CLOUDY    62  59  90 S12       29.66R
6HR MIN TEMP:  61; 6HR MAX TEMP:  65;

TOPEKA FORBES  PTCLDY    63  58  83 S15       29.67R
6HR MIN TEMP:  62; 6HR MAX TEMP:  65;

$$



USA.gov is the U.S. government's official web portal to all federal, state and local government web resources and services.